Regional Weather Roundup
Issued by NWS Kansas City/Pleasant Hill, MO

Home | Current Version | Previous Version | Graphics & Text | Print | Product List | Glossary Off
Versions: 1 2 3 4 5 6 7 8 9 10 11 12 13 14 15 16 17 18 19 20 21 22 23 24 25 26 27 28 29 30 31 32 33 34 35 36 37 38 39 40 41 42 43 44 45 46 47 48 49 50

000
ASUS43 KEAX 240410
RWREAX

WEATHER ROUNDUP FOR EASTERN KANSAS AND NORTHWEST MISSOURI
NATIONAL WEATHER SERVICE KANSAS CITY/PLEASANT HILL MO
1000 PM CST MON JAN 23 2017

KSZ040-057-103>105-MOZ028-029-037-043-240500-
...KANSAS CITY METROPOLITAN AREA...

CITY           SKY/WX    TMP DP  RH WIND       PRES   REMARKS
K.C. INTL      CLEAR     34  29  82 SE9       29.83S WCI  27
K.C. DOWNTOWN  CLEAR     34  30  85 CALM      29.84S
LEES SUMMIT    CLEAR     34  31  88 E7        29.84S WCI  28
OLATHE - IXD   CLEAR     33  31  92 SE6       29.82F WCI  28
OLATHE - OJC   CLEAR     33  31  92 E6        29.82F WCI  28
LAWRENCE       CLEAR     31  31 100 E7        29.82F FOG     WCI  24

$$

MOZ001>008-011>017-020>025-030>033-038>040-044>046-053-054-240500-
...NORTHERN AND CENTRAL MISSOURI...

CITY           SKY/WX    TMP DP  RH WIND       PRES   REMARKS
ST. JOSEPH     CLEAR     31  30  96 E8        29.85S WCI  23
MOSBY            N/A     32  32 100 CALM      29.86R
WARRENSBURG    CLEAR     32  32 100 CALM      29.85S FOG
WHITEMAN AFB   CLEAR     31  31 100 CALM      29.84S
CLINTON        CLEAR     30  30 100 CALM      29.86R FOG
SEDALIA        CLEAR     31  29  92 E6        29.86F WCI  25
WARSAW         NOT AVBL
CHILLICOTHE      N/A     29  26  89 CALM      29.88S
KIRKSVILLE     CLOUDY    32  29  88 CALM      29.88S

$$

MOZ041-047>049-056>058-063>065-088>090-097-240500-
...EASTERN AND SOUTHERN MISSOURI...

CITY           SKY/WX    TMP DP  RH WIND       PRES   REMARKS
ST. LOUIS INTL CLOUDY    41  32  70 NW7       29.88R
SPIRIT OF STL  CLOUDY    41  34  76 NW3       29.87R
COLUMBIA       CLOUDY    35  31  85 W3        29.88R
JEFFERSON CITY CLEAR     33  30  88 CALM      29.89R
ROLLA          CLEAR     30  29  96 CALM      29.85R
OSAGE BEACH    CLEAR     29  27  92 E3        29.87S
SPRINGFIELD    CLEAR     35  30  82 SE5       29.81F WCI  31
BRANSON        CLEAR     39  32  75 CALM      29.84S
JOPLIN         CLEAR     38  33  82 E7        29.81F WCI  33
WEST PLAINS    CLEAR     33  29  85 CALM      29.85S

$$

IAZ060-094-KSZ022-034>040-054-083-096-NEZ052-066-093-240500-
...KANSAS...SOUTHEAST NEBRASKA AND IOWA...

CITY           SKY/WX    TMP DP  RH WIND       PRES   REMARKS
TOPEKA         CLEAR     33  30  88 E7        29.81S FOG     WCI  27
MANHATTAN      CLEAR     36  32  85 NE8       29.76S FOG     WCI  30
EMPORIA        CLEAR     38  33  82 SE10      29.75F WCI  31
CHANUTE        CLEAR     40  33  76 E9        29.78F WCI  34
WICHITA        CLEAR     44  33  65 SE15      29.68F
OMAHA          CLOUDY    32  27  81 SE10      29.84S WCI  24
LINCOLN        MOCLDY    32  29  88 E7        29.81F WCI  26
FALLS CITY     CLOUDY    29  27  92 E8        29.82S WCI  21
LAMONI         CLOUDY    31  28  89 SE5       29.84F WCI  26
DES MOINES     CLOUDY    33  28  81 S3        29.88R

$$




USA.gov is the U.S. government's official web portal to all federal, state and local government web resources and services.